Wetterdaten: Samstag, 15.10.2016
Datum Zeit Temp. A. Aussentemp2 Feuchte A. Luftdruck Regen Wind Richtung Richtung Sonnenschein Helligkeit Solar
15.10.2016 00:04 10,6 C 12,3 C 81 % 1003,7 hPa 0,0 l/m 8,7 km/h (2 Bft) O-NO22.5 75 0 min 0 lux 0 W/m
15.10.2016 00:09 10,6 C 12,3 C 81 % 1003,7 hPa 0,0 l/m 7,9 km/h (2 Bft) O-NO22.5 65 0 min 0 lux 0 W/m
15.10.2016 00:14 10,6 C 12,3 C 81 % 1003,7 hPa 0,0 l/m 1,6 km/h (1 Bft) O22.5 85 0 min 0 lux 0 W/m
15.10.2016 00:19 10,6 C 12,3 C 81 % 1003,7 hPa 0,0 l/m 0,6 km/h (0 Bft) O 80 0 min 0 lux 0 W/m
15.10.2016 00:25 10,7 C 12,3 C 81 % 1003,7 hPa 0,0 l/m 2,1 km/h (1 Bft) O 80 0 min 0 lux 0 W/m
15.10.2016 00:30 10,7 C 12,2 C 81 % 1002,7 hPa 0,0 l/m 0,6 km/h (0 Bft) O 80 0 min 0 lux 0 W/m
15.10.2016 00:35 10,6 C 12,2 C 81 % 1003,7 hPa 0,0 l/m 0,1 km/h (0 Bft) O 80 0 min 0 lux 0 W/m
15.10.2016 00:39 10,6 C 12,3 C 81 % 1003,7 hPa 0,0 l/m 0,7 km/h (0 Bft) O 80 0 min 0 lux 0 W/m
15.10.2016 00:44 10,5 C 12,4 C 81 % 1003,7 hPa 0,0 l/m 4,6 km/h (1 Bft) O 95 0 min 0 lux 0 W/m
15.10.2016 00:49 10,5 C 12,3 C 82 % 1002,7 hPa 0,1 l/m 6,8 km/h (2 Bft) O 95 0 min 0 lux 0 W/m
15.10.2016 00:55 10,4 C 12,3 C 82 % 1002,7 hPa 0,0 l/m 8,6 km/h (2 Bft) O22.5 85 0 min 0 lux 0 W/m
15.10.2016 01:00 10,4 C 12,4 C 82 % 1002,7 hPa 0,0 l/m 7,9 km/h (2 Bft) O22.5 85 0 min 0 lux 0 W/m
15.10.2016 01:04 10,4 C 12,4 C 82 % 1002,7 hPa 0,0 l/m 8,5 km/h (2 Bft) O22.5 90 0 min 0 lux 0 W/m
15.10.2016 01:09 10,4 C 12,5 C 82 % 1002,7 hPa 0,1 l/m 7,0 km/h (2 Bft) O22.5 90 0 min 0 lux 0 W/m
15.10.2016 01:15 10,4 C 12,4 C 83 % 1002,7 hPa 0,0 l/m 8,6 km/h (2 Bft) O-NO 75 0 min 0 lux 0 W/m
15.10.2016 01:20 10,3 C 12,5 C 82 % 1002,7 hPa 0,0 l/m 0,4 km/h (0 Bft) O 80 0 min 0 lux 0 W/m
15.10.2016 01:25 10,3 C 12,4 C 82 % 1002,7 hPa 0,0 l/m 2,8 km/h (1 Bft) O-NO 60 0 min 0 lux 0 W/m
15.10.2016 01:29 10,3 C 12,4 C 82 % 1002,7 hPa 0,0 l/m 0,0 km/h (0 Bft) O-NO 60 0 min 0 lux 0 W/m
15.10.2016 01:34 10,3 C 12,3 C 82 % 1002,7 hPa 0,0 l/m 0,0 km/h (0 Bft) O-NO 60 0 min 0 lux 0 W/m
15.10.2016 01:40 10,3 C 12,4 C 82 % 1002,7 hPa 0,0 l/m 1,0 km/h (0 Bft) O22.5 90 0 min 0 lux 0 W/m
15.10.2016 01:45 10,1 C 12,4 C 82 % 1002,7 hPa 0,0 l/m 6,3 km/h (2 Bft) O-SO45 115 0 min 0 lux 0 W/m
15.10.2016 01:50 10,1 C 12,3 C 83 % 1002,7 hPa 0,0 l/m 0,4 km/h (0 Bft) O-SO 115 0 min 0 lux 0 W/m
15.10.2016 01:54 10,1 C 12,3 C 83 % 1002,7 hPa 0,0 l/m 0,2 km/h (0 Bft) O-SO 115 0 min 0 lux 0 W/m
15.10.2016 01:59 10,1 C 12,3 C 83 % 1002,7 hPa 0,0 l/m 0,8 km/h (0 Bft) O-SO 115 0 min 0 lux 0 W/m
15.10.2016 02:05 10,0 C 12,4 C 83 % 1002,7 hPa 0,0 l/m 5,3 km/h (1 Bft) O-SO 105 0 min 0 lux 0 W/m
15.10.2016 02:10 10,0 C 12,4 C 83 % 1002,7 hPa 0,0 l/m 0,4 km/h (0 Bft) O-SO 105 0 min 0 lux 0 W/m
15.10.2016 02:14 10,0 C 12,3 C 83 % 1002,7 hPa 0,0 l/m 0,6 km/h (0 Bft) O-SO 115 0 min 0 lux 0 W/m
15.10.2016 02:19 10,0 C 12,3 C 84 % 1002,7 hPa 0,0 l/m 5,8 km/h (2 Bft) O-SO22.5 105 0 min 0 lux 0 W/m
15.10.2016 02:24 10,0 C 12,3 C 84 % 1002,7 hPa 0,0 l/m 0,6 km/h (0 Bft) O 95 0 min 0 lux 0 W/m
15.10.2016 02:30 10,0 C 12,4 C 84 % 1002,7 hPa 0,0 l/m 0,4 km/h (0 Bft) O 95 0 min 0 lux 0 W/m
15.10.2016 02:35 10,0 C 12,4 C 84 % 1002,7 hPa 0,0 l/m 0,4 km/h (0 Bft) O-SO 105 0 min 0 lux 0 W/m
15.10.2016 02:39 10,0 C 12,3 C 84 % 1002,7 hPa 0,0 l/m 2,5 km/h (1 Bft) O-SO 110 0 min 0 lux 0 W/m
15.10.2016 02:44 10,0 C 12,3 C 84 % 1002,7 hPa 0,0 l/m 1,0 km/h (0 Bft) O22.5 90 0 min 0 lux 0 W/m
15.10.2016 02:49 10,1 C 12,3 C 84 % 1002,7 hPa 0,0 l/m 3,4 km/h (1 Bft) O 95 0 min 0 lux 0 W/m
15.10.2016 02:55 10,2 C 12,4 C 84 % 1002,7 hPa 0,0 l/m 1,0 km/h (0 Bft) O 95 0 min 0 lux 0 W/m
15.10.2016 03:00 10,2 C 12,4 C 84 % 1002,7 hPa 0,0 l/m 0,6 km/h (0 Bft) O 95 0 min 0 lux 0 W/m
15.10.2016 03:04 10,2 C 12,3 C 84 % 1002,7 hPa 0,0 l/m 1,7 km/h (1 Bft) O22.5 100 0 min 0 lux 0 W/m
15.10.2016 03:09 10,3 C 12,3 C 84 % 1002,7 hPa 0,0 l/m 4,5 km/h (1 Bft) O 95 0 min 0 lux 0 W/m
15.10.2016 03:15 10,3 C 12,3 C 84 % 1002,7 hPa 0,0 l/m 5,2 km/h (1 Bft) O 100 0 min 0 lux 0 W/m
15.10.2016 03:20 10,3 C 12,3 C 84 % 1002,7 hPa 0,0 l/m 1,3 km/h (1 Bft) SO22.5 125 0 min 0 lux 0 W/m
15.10.2016 03:24 10,3 C 12,2 C 84 % 1002,7 hPa 0,0 l/m 8,3 km/h (2 Bft) O-SO22.5 115 0 min 0 lux 0 W/m
15.10.2016 03:29 10,3 C 12,2 C 84 % 1002,7 hPa 0,0 l/m 1,3 km/h (1 Bft) O-SO22.5 110 0 min 0 lux 0 W/m
15.10.2016 03:34 10,3 C 12,2 C 84 % 1002,7 hPa 0,0 l/m 2,2 km/h (1 Bft) O-SO 120 0 min 0 lux 0 W/m
15.10.2016 03:40 10,4 C 12,3 C 84 % 1002,7 hPa 0,0 l/m 1,6 km/h (1 Bft) O-SO22.5 115 0 min 0 lux 0 W/m
15.10.2016 03:45 10,4 C 12,2 C 84 % 1002,7 hPa 0,0 l/m 6,6 km/h (2 Bft) O-SO 115 0 min 0 lux 0 W/m
15.10.2016 03:50 10,4 C 12,2 C 84 % 1002,7 hPa 0,0 l/m 6,3 km/h (2 Bft) O-SO22.5 115 0 min 0 lux 0 W/m
15.10.2016 03:54 10,4 C 12,1 C 84 % 1002,7 hPa 0,0 l/m 9,2 km/h (2 Bft) S-SO22.5 150 0 min 0 lux 0 W/m
15.10.2016 03:59 10,5 C 12,1 C 83 % 1002,7 hPa 0,0 l/m 11,6 km/h (2 Bft) SO22.5 130 0 min 0 lux 0 W/m
15.10.2016 04:05 10,6 C 12,2 C 83 % 1002,7 hPa 0,0 l/m 12,5 km/h (2 Bft) SO22.5 140 0 min 0 lux 0 W/m
15.10.2016 04:09 10,7 C 12,1 C 83 % 1002,7 hPa 0,0 l/m 10,6 km/h (2 Bft) SO45 140 0 min 0 lux 0 W/m
15.10.2016 04:14 10,7 C 12,1 C 83 % 1002,7 hPa 0,0 l/m 11,0 km/h (2 Bft) SO45 145 0 min 0 lux 0 W/m
15.10.2016 04:19 10,7 C 12,1 C 82 % 1002,7 hPa 0,0 l/m 13,0 km/h (3 Bft) SO45 130 0 min 0 lux 0 W/m
15.10.2016 04:25 10,7 C 12,0 C 82 % 1002,7 hPa 0,0 l/m 13,3 km/h (3 Bft) S-SO22.5 160 0 min 0 lux 0 W/m
15.10.2016 04:30 10,6 C 12,0 C 82 % 1002,7 hPa 0,0 l/m 13,7 km/h (3 Bft) S-SO22.5 150 0 min 0 lux 0 W/m
15.10.2016 04:35 10,6 C 12,1 C 82 % 1002,7 hPa 0,0 l/m 10,2 km/h (2 Bft) SO22.5 145 0 min 0 lux 0 W/m
15.10.2016 04:39 10,6 C 12,0 C 82 % 1002,7 hPa 0,0 l/m 11,1 km/h (2 Bft) S-SO22.5 150 0 min 0 lux 0 W/m
15.10.2016 04:44 10,5 C 12,0 C 82 % 1002,7 hPa 0,0 l/m 13,8 km/h (3 Bft) S-SO22.5 150 0 min 0 lux 0 W/m
15.10.2016 04:49 10,5 C 12,0 C 82 % 1002,7 hPa 0,0 l/m 12,1 km/h (2 Bft) S-SO22.5 160 0 min 0 lux 0 W/m
15.10.2016 04:55 10,4 C 12,0 C 82 % 1002,7 hPa 0,0 l/m 11,5 km/h (2 Bft) S-SO22.5 160 0 min 0 lux 0 W/m
15.10.2016 05:00 10,4 C 12,0 C 82 % 1002,7 hPa 0,0 l/m 12,5 km/h (2 Bft) S-SO22.5 155 0 min 0 lux 0 W/m
15.10.2016 05:04 10,4 C 11,9 C 82 % 1002,7 hPa 0,0 l/m 9,1 km/h (2 Bft) S-SO22.5 160 0 min 0 lux 0 W/m
15.10.2016 05:10 10,4 C 11,9 C 82 % 1002,7 hPa 0,0 l/m 13,2 km/h (3 Bft) S-SO45 165 0 min 0 lux 0 W/m
15.10.2016 05:15 10,4 C 11,9 C 82 % 1002,7 hPa 0,0 l/m 15,0 km/h (3 Bft) S22.5 175 0 min 0 lux 0 W/m
15.10.2016 05:20 10,5 C 11,9 C 82 % 1002,7 hPa 0,0 l/m 10,9 km/h (2 Bft) S-SO22.5 165 0 min 0 lux 0 W/m
15.10.2016 05:24 10,5 C 11,9 C 82 % 1002,7 hPa 0,0 l/m 14,7 km/h (3 Bft) S-SO22.5 165 0 min 0 lux 0 W/m
15.10.2016 05:29 10,5 C 11,9 C 82 % 1002,7 hPa 0,0 l/m 12,1 km/h (2 Bft) S-SO22.5 165 0 min 0 lux 0 W/m
15.10.2016 05:34 10,5 C 11,9 C 82 % 1002,7 hPa 0,0 l/m 9,6 km/h (2 Bft) S-SO22.5 165 0 min 0 lux 0 W/m
15.10.2016 05:40 10,5 C 11,9 C 82 % 1002,7 hPa 0,0 l/m 11,8 km/h (2 Bft) S-SO22.5 160 0 min 0 lux 0 W/m
15.10.2016 05:45 10,5 C 11,8 C 82 % 1002,7 hPa 0,0 l/m 11,5 km/h (2 Bft) S-SO22.5 165 0 min 0 lux 0 W/m
15.10.2016 05:49 10,6 C 11,9 C 82 % 1003,7 hPa 0,0 l/m 12,4 km/h (2 Bft) S22.5 170 0 min 0 lux 0 W/m
15.10.2016 05:54 10,6 C 11,9 C 82 % 1003,7 hPa 0,0 l/m 9,4 km/h (2 Bft) S-SO22.5 160 0 min 0 lux 0 W/m
15.10.2016 05:59 10,7 C 11,9 C 82 % 1003,7 hPa 0,0 l/m 11,9 km/h (2 Bft) S22.5 170 0 min 0 lux 0 W/m
15.10.2016 06:05 10,7 C 11,9 C 82 % 1002,7 hPa 0,0 l/m 11,3 km/h (2 Bft) S-SO22.5 160 0 min 0 lux 0 W/m
15.10.2016 06:09 10,8 C 11,9 C 82 % 1002,7 hPa 0,0 l/m 16,1 km/h (3 Bft) S45 170 0 min 0 lux 0 W/m
15.10.2016 06:14 10,8 C 11,9 C 82 % 1002,7 hPa 0,0 l/m 13,7 km/h (3 Bft) S-SO22.5 155 0 min 0 lux 0 W/m
15.10.2016 06:19 10,8 C 11,9 C 82 % 1003,7 hPa 0,0 l/m 14,5 km/h (3 Bft) S-SO45 165 0 min 0 lux 0 W/m
15.10.2016 06:25 10,8 C 11,9 C 83 % 1003,7 hPa 0,0 l/m 12,3 km/h (2 Bft) S-SO22.5 160 0 min 0 lux 0 W/m
15.10.2016 06:30 10,8 C 11,9 C 83 % 1003,7 hPa 0,0 l/m 13,9 km/h (3 Bft) S22.5 170 0 min 0 lux 0 W/m
15.10.2016 06:34 10,8 C 11,9 C 83 % 1003,7 hPa 0,0 l/m 13,5 km/h (3 Bft) S22.5 175 0 min 0 lux 0 W/m
15.10.2016 06:39 10,8 C 11,9 C 83 % 1003,7 hPa 0,0 l/m 6,8 km/h (2 Bft) S22.5 190 0 min 0 lux 0 W/m
15.10.2016 06:44 10,8 C 11,9 C 83 % 1003,7 hPa 0,0 l/m 14,3 km/h (3 Bft) S22.5 175 0 min 0 lux 0 W/m
15.10.2016 06:50 10,8 C 11,9 C 83 % 1003,7 hPa 0,0 l/m 14,8 km/h (3 Bft) S-SO22.5 165 0 min 0 lux 0 W/m
15.10.2016 06:55 10,8 C 11,9 C 83 % 1003,7 hPa 0,0 l/m 11,6 km/h (2 Bft) S22.5 180 0 min 0 lux 0 W/m
15.10.2016 07:00 10,8 C 11,8 C 83 % 1003,7 hPa 0,0 l/m 15,6 km/h (3 Bft) S22.5 170 0 min 0 lux 0 W/m
15.10.2016 07:04 10,8 C 11,9 C 83 % 1003,7 hPa 0,0 l/m 14,8 km/h (3 Bft) S45 175 0 min 0 lux 0 W/m
15.10.2016 07:10 10,8 C 11,9 C 83 % 1003,7 hPa 0,0 l/m 12,5 km/h (2 Bft) S45 170 0 min 0 lux 0 W/m
15.10.2016 07:15 10,8 C 11,9 C 83 % 1003,7 hPa 0,0 l/m 7,2 km/h (2 Bft) S-SO22.5 150 0 min 0 lux 0 W/m
15.10.2016 07:19 10,8 C 11,9 C 83 % 1004,7 hPa 0,0 l/m 10,2 km/h (2 Bft) S22.5 175 0 min 0 lux 0 W/m
15.10.2016 07:24 10,8 C 12,0 C 83 % 1004,7 hPa 0,0 l/m 7,1 km/h (2 Bft) S22.5 170 0 min 0 lux 0 W/m
15.10.2016 07:29 10,8 C 11,9 C 83 % 1004,7 hPa 0,0 l/m 11,3 km/h (2 Bft) S22.5 180 0 min 0 lux 0 W/m
15.10.2016 07:35 10,8 C 11,9 C 83 % 1004,7 hPa 0,0 l/m 12,5 km/h (2 Bft) S-SO22.5 165 0 min 0 lux 0 W/m
15.10.2016 07:40 10,7 C 11,9 C 83 % 1004,7 hPa 0,0 l/m 15,1 km/h (3 Bft) S-SO22.5 165 0 min 0 lux 0 W/m
15.10.2016 07:45 10,7 C 11,8 C 84 % 1004,7 hPa 0,0 l/m 11,8 km/h (2 Bft) S-SO22.5 160 0 min 0 lux 0 W/m
15.10.2016 07:49 10,6 C 11,7 C 84 % 1004,7 hPa 0,0 l/m 12,1 km/h (2 Bft) S-SO22.5 165 0 min 0 lux 0 W/m
15.10.2016 07:54 10,6 C 11,8 C 85 % 1004,7 hPa 0,1 l/m 12,0 km/h (2 Bft) S-SO22.5 160 0 min 0 lux 0 W/m
15.10.2016 07:59 10,5 C 11,8 C 85 % 1004,7 hPa 0,1 l/m 10,6 km/h (2 Bft) S-SO22.5 150 0 min 0 lux 0 W/m
15.10.2016 08:04 10,4 C 11,6 C 85 % 1004,7 hPa 0,0 l/m 15,5 km/h (3 Bft) S-SO22.5 165 0 min 0 lux 0 W/m
15.10.2016 08:09 10,5 C 11,7 C 86 % 1004,7 hPa 0,0 l/m 13,8 km/h (3 Bft) S-SO22.5 160 0 min 0 lux 0 W/m
15.10.2016 08:14 10,5 C 11,7 C 86 % 1004,7 hPa 0,0 l/m 14,0 km/h (3 Bft) S-SO22.5 165 0 min 0 lux 0 W/m
15.10.2016 08:20 10,5 C 11,7 C 86 % 1004,7 hPa 0,1 l/m 10,4 km/h (2 Bft) S-SO22.5 160 0 min 0 lux 0 W/m
15.10.2016 08:25 10,5 C 11,7 C 86 % 1004,7 hPa 0,0 l/m 13,2 km/h (3 Bft) S-SO22.5 165 0 min 680 lux 5 W/m
15.10.2016 08:30 10,5 C 11,7 C 87 % 1004,7 hPa 0,0 l/m 13,6 km/h (3 Bft) S22.5 170 0 min 680 lux 5 W/m
15.10.2016 08:34 10,5 C 11,8 C 87 % 1004,7 hPa 0,0 l/m 13,1 km/h (3 Bft) S-SO22.5 155 0 min 753 lux 5 W/m
15.10.2016 08:39 10,6 C 11,8 C 87 % 1004,7 hPa 0,0 l/m 15,3 km/h (3 Bft) S-SO22.5 160 0 min 753 lux 5 W/m
15.10.2016 08:44 10,6 C 11,8 C 87 % 1005,7 hPa 0,0 l/m 13,4 km/h (3 Bft) S-SO22.5 155 0 min 753 lux 5 W/m
15.10.2016 08:50 10,7 C 11,6 C 87 % 1005,7 hPa 0,0 l/m 11,5 km/h (2 Bft) S-SO22.5 160 0 min 753 lux 5 W/m
15.10.2016 08:55 10,8 C 11,6 C 88 % 1005,7 hPa 0,0 l/m 13,6 km/h (3 Bft) S-SO22.5 165 0 min 1,61 klux 11 W/m
15.10.2016 08:59 10,8 C 11,7 C 88 % 1005,7 hPa 0,0 l/m 15,0 km/h (3 Bft) S45 170 0 min 1,61 klux 11 W/m
15.10.2016 09:05 10,8 C 11,7 C 88 % 1005,7 hPa 0,0 l/m 13,8 km/h (3 Bft) S-SO22.5 155 0 min 1,61 klux 11 W/m
15.10.2016 09:10 11,0 C 11,7 C 88 % 1005,7 hPa 0,1 l/m 15,4 km/h (3 Bft) S-SO45 165 0 min 1,61 klux 11 W/m
15.10.2016 09:15 11,0 C 11,7 C 88 % 1005,7 hPa 0,0 l/m 17,4 km/h (3 Bft) S45 175 0 min 1,61 klux 11 W/m
15.10.2016 09:19 11,1 C 11,7 C 88 % 1005,7 hPa 0,0 l/m 14,8 km/h (3 Bft) S22.5 175 0 min 1,61 klux 11 W/m
15.10.2016 09:24 11,1 C 11,7 C 88 % 1005,7 hPa 0,0 l/m 14,8 km/h (3 Bft) S22.5 175 0 min 1,96 klux 13 W/m
15.10.2016 09:29 11,1 C 11,7 C 88 % 1005,7 hPa 0,0 l/m 14,8 km/h (3 Bft) S22.5 175 0 min 2,87 klux 20 W/m
15.10.2016 09:35 11,2 C 11,8 C 88 % 1006,7 hPa 0,0 l/m 16,4 km/h (3 Bft) S22.5 180 0 min 4,11 klux 28 W/m
15.10.2016 09:40 11,2 C 11,8 C 88 % 1006,7 hPa 0,0 l/m 19,5 km/h (3 Bft) S22.5 170 0 min 3,69 klux 25 W/m
15.10.2016 09:44 11,2 C 11,8 C 88 % 1006,7 hPa 0,0 l/m 15,8 km/h (3 Bft) S22.5 180 0 min 4,07 klux 28 W/m
15.10.2016 09:49 11,3 C 11,9 C 88 % 1006,7 hPa 0,0 l/m 19,0 km/h (3 Bft) S45 180 0 min 4,34 klux 30 W/m
15.10.2016 09:54 11,4 C 11,9 C 88 % 1006,7 hPa 0,0 l/m 19,0 km/h (3 Bft) S45 180 0 min 4,34 klux 30 W/m
15.10.2016 10:00 11,4 C 11,9 C 88 % 1006,7 hPa 0,0 l/m 16,0 km/h (3 Bft) S45 180 0 min 4,34 klux 30 W/m
15.10.2016 10:04 11,4 C 11,8 C 88 % 1006,7 hPa 0,0 l/m 19,3 km/h (3 Bft) S-SW22.5 195 0 min 4,34 klux 30 W/m
15.10.2016 10:09 11,5 C 12,0 C 88 % 1006,7 hPa 0,0 l/m 15,5 km/h (3 Bft) S67.5 180 0 min 4,34 klux 30 W/m
15.10.2016 10:15 11,6 C 12,0 C 88 % 1006,7 hPa 0,0 l/m 12,7 km/h (3 Bft) S-SW45 200 0 min 3,96 klux 27 W/m
15.10.2016 10:20 11,5 C 12,0 C 88 % 1006,7 hPa 0,0 l/m 16,0 km/h (3 Bft) S45 180 0 min 5,57 klux 38 W/m
15.10.2016 10:25 11,5 C 11,9 C 88 % 1007,7 hPa 0,0 l/m 15,3 km/h (3 Bft) S45 190 0 min 6,76 klux 46 W/m
15.10.2016 10:29 11,6 C 12,0 C 88 % 1007,7 hPa 0,0 l/m 14,1 km/h (3 Bft) S22.5 190 0 min 6,76 klux 46 W/m
15.10.2016 10:34 11,7 C 12,2 C 88 % 1007,7 hPa 0,0 l/m 17,1 km/h (3 Bft) S-SW45 205 0 min 6,76 klux 46 W/m
15.10.2016 10:39 11,7 C 12,1 C 88 % 1007,7 hPa 0,1 l/m 23,6 km/h (4 Bft) S-SW45 205 0 min 3,77 klux 26 W/m
15.10.2016 10:45 11,8 C 12,1 C 88 % 1007,7 hPa 0,0 l/m 16,2 km/h (3 Bft) S-SW22.5 210 0 min 3,77 klux 26 W/m
15.10.2016 10:50 11,8 C 12,2 C 88 % 1007,7 hPa 0,0 l/m 18,8 km/h (3 Bft) SW45 215 0 min 3,77 klux 26 W/m
15.10.2016 10:54 11,8 C 12,2 C 88 % 1007,7 hPa 0,0 l/m 23,0 km/h (4 Bft) SW22.5 215 0 min 4,07 klux 28 W/m
15.10.2016 10:59 11,8 C 12,2 C 88 % 1007,7 hPa 0,0 l/m 25,3 km/h (4 Bft) SW45 230 0 min 3,83 klux 26 W/m
15.10.2016 11:05 11,8 C 12,2 C 88 % 1007,7 hPa 0,0 l/m 25,6 km/h (4 Bft) SW22.5 225 0 min 3,12 klux 21 W/m
15.10.2016 11:10 11,8 C 12,1 C 87 % 1007,7 hPa 0,0 l/m 24,5 km/h (4 Bft) SW22.5 220 0 min 4,60 klux 31 W/m
15.10.2016 11:14 11,8 C 12,2 C 87 % 1008,7 hPa 0,0 l/m 20,2 km/h (4 Bft) SW67.5 225 0 min 7,16 klux 49 W/m
15.10.2016 11:19 11,9 C 12,3 C 87 % 1008,7 hPa 0,0 l/m 24,3 km/h (4 Bft) SW45 220 0 min 7,16 klux 49 W/m
15.10.2016 11:25 12,0 C 12,3 C 87 % 1008,7 hPa 0,0 l/m 23,3 km/h (4 Bft) SW45 220 0 min 9,2 klux 63 W/m
15.10.2016 11:30 12,0 C 12,3 C 87 % 1008,7 hPa 0,0 l/m 25,7 km/h (4 Bft) SW45 220 0 min 6,13 klux 42 W/m
15.10.2016 11:35 12,0 C 12,3 C 87 % 1008,7 hPa 0,0 l/m 25,3 km/h (4 Bft) SW22.5 220 0 min 7,17 klux 49 W/m
15.10.2016 11:39 12,0 C 12,3 C 86 % 1008,7 hPa 0,0 l/m 20,8 km/h (4 Bft) SW45 215 0 min 7,17 klux 49 W/m
15.10.2016 11:44 12,0 C 12,3 C 87 % 1008,7 hPa 0,0 l/m 28,0 km/h (5 Bft) SW45 230 0 min 6,29 klux 43 W/m
15.10.2016 11:49 12,0 C 12,3 C 87 % 1008,7 hPa 0,0 l/m 26,3 km/h (4 Bft) SW45 225 0 min 6,76 klux 46 W/m
15.10.2016 11:55 12,0 C 12,3 C 87 % 1008,7 hPa 0,0 l/m 23,8 km/h (4 Bft) SW45 225 0 min 7,39 klux 51 W/m
15.10.2016 12:00 12,0 C 12,3 C 87 % 1008,7 hPa 0,0 l/m 23,3 km/h (4 Bft) SW45 230 0 min 8,66 klux 59 W/m
15.10.2016 12:04 12,1 C 12,4 C 87 % 1008,7 hPa 0,0 l/m 21,3 km/h (4 Bft) SW22.5 225 0 min 8,66 klux 59 W/m
15.10.2016 12:10 12,2 C 12,5 C 87 % 1008,7 hPa 0,0 l/m 17,6 km/h (3 Bft) SW45 230 0 min 9,5 klux 65 W/m
15.10.2016 12:15 12,2 C 12,5 C 87 % 1008,7 hPa 0,0 l/m 25,0 km/h (4 Bft) SW45 230 0 min 9,9 klux 68 W/m
15.10.2016 12:19 12,2 C 12,5 C 86 % 1008,7 hPa 0,0 l/m 29,8 km/h (5 Bft) SW45 230 0 min 10,6 klux 73 W/m
15.10.2016 12:24 12,4 C 12,6 C 85 % 1009,7 hPa 0,0 l/m 24,8 km/h (4 Bft) SW45 235 0 min 9,2 klux 63 W/m
15.10.2016 12:29 12,4 C 12,6 C 85 % 1009,7 hPa 0,0 l/m 23,6 km/h (4 Bft) SW45 225 0 min 10,8 klux 74 W/m
15.10.2016 12:35 12,4 C 12,7 C 85 % 1009,7 hPa 0,0 l/m 27,1 km/h (5 Bft) SW45 220 0 min 11,1 klux 76 W/m
15.10.2016 12:40 12,7 C 12,7 C 85 % 1009,7 hPa 0,0 l/m 29,0 km/h (5 Bft) SW45 225 0 min 11,1 klux 76 W/m
15.10.2016 12:44 12,7 C 12,7 C 84 % 1009,7 hPa 0,0 l/m 27,1 km/h (5 Bft) SW45 230 0 min 9,8 klux 67 W/m
15.10.2016 12:49 12,7 C 12,7 C 84 % 1009,7 hPa 0,0 l/m 34,5 km/h (5 Bft) SW67.5 225 0 min 7,67 klux 52 W/m
15.10.2016 12:54 12,8 C 12,8 C 83 % 1009,7 hPa 0,0 l/m 28,9 km/h (5 Bft) SW45 225 0 min 8,19 klux 56 W/m
15.10.2016 13:00 12,8 C 12,8 C 83 % 1009,7 hPa 0,0 l/m 25,9 km/h (4 Bft) SW45 230 0 min 8,19 klux 56 W/m
15.10.2016 13:04 12,8 C 12,8 C 83 % 1009,7 hPa 0,0 l/m 28,3 km/h (5 Bft) SW67.5 225 0 min 9,6 klux 66 W/m
15.10.2016 13:09 13,0 C 12,9 C 83 % 1009,7 hPa 0,0 l/m 28,6 km/h (5 Bft) SW45 230 0 min 13,3 klux 91 W/m
15.10.2016 13:15 13,2 C 12,9 C 83 % 1009,7 hPa 0,0 l/m 27,0 km/h (5 Bft) SW45 225 0 min 11,3 klux 77 W/m
15.10.2016 13:20 13,0 C 12,9 C 82 % 1010,7 hPa 0,0 l/m 30,6 km/h (5 Bft) SW22.5 230 0 min 11,3 klux 77 W/m
15.10.2016 13:25 13,3 C 13,0 C 82 % 1010,7 hPa 0,0 l/m 27,8 km/h (5 Bft) SW45 230 0 min 29,0 klux 198 W/m
15.10.2016 13:29 13,5 C 13,1 C 81 % 1010,7 hPa 0,0 l/m 25,9 km/h (4 Bft) SW67.5 225 0 min 25,1 klux 172 W/m
15.10.2016 13:34 13,6 C 13,2 C 81 % 1010,7 hPa 0,0 l/m 23,1 km/h (4 Bft) SW45 225 0 min 22,7 klux 155 W/m
15.10.2016 13:40 13,8 C 13,3 C 81 % 1010,7 hPa 0,0 l/m 29,5 km/h (5 Bft) SW45 220 0 min 28,9 klux 198 W/m
15.10.2016 13:45 14,0 C 13,4 C 80 % 1010,7 hPa 0,0 l/m 23,1 km/h (4 Bft) SW22.5 230 0 min 30,5 klux 209 W/m
15.10.2016 13:50 14,0 C 13,4 C 79 % 1010,7 hPa 0,0 l/m 20,8 km/h (4 Bft) SW45 215 0 min 30,5 klux 209 W/m
15.10.2016 13:54 14,0 C 13,3 C 79 % 1010,7 hPa 0,0 l/m 23,9 km/h (4 Bft) SW67.5 225 0 min 21,2 klux 145 W/m
15.10.2016 13:59 14,1 C 13,5 C 80 % 1010,7 hPa 0,0 l/m 22,3 km/h (4 Bft) SW22.5 230 0 min 29,9 klux 205 W/m
15.10.2016 14:05 14,4 C 13,6 C 79 % 1010,7 hPa 0,0 l/m 17,8 km/h (3 Bft) SW22.5 225 0 min 21,1 klux 144 W/m
15.10.2016 14:09 14,3 C 13,5 C 78 % 1010,7 hPa 0,0 l/m 19,1 km/h (3 Bft) SW22.5 225 0 min 15,4 klux 105 W/m
15.10.2016 14:14 14,3 C 13,9 C 78 % 1010,7 hPa 0,0 l/m 21,0 km/h (4 Bft) SW22.5 230 0 min 13,0 klux 89 W/m
15.10.2016 14:19 14,2 C 13,9 C 77 % 1010,7 hPa 0,0 l/m 21,7 km/h (4 Bft) SW22.5 220 0 min 15,5 klux 106 W/m
15.10.2016 14:25 14,4 C 14,0 C 78 % 1010,7 hPa 0,0 l/m 15,6 km/h (3 Bft) SW22.5 220 0 min 15,5 klux 106 W/m
15.10.2016 14:30 14,4 C 13,9 C 76 % 1010,7 hPa 0,0 l/m 21,7 km/h (4 Bft) SW45 215 0 min 16,8 klux 115 W/m
15.10.2016 14:34 14,9 C 14,5 C 76 % 1010,7 hPa 0,0 l/m 21,2 km/h (4 Bft) SW45 235 0 min 35,5 klux 243 W/m
15.10.2016 14:39 15,0 C 14,0 C 74 % 1010,7 hPa 0,0 l/m 17,3 km/h (3 Bft) SW67.5 230 0 min 35,5 klux 243 W/m
15.10.2016 14:44 15,0 C 14,0 C 74 % 1010,7 hPa 0,0 l/m 22,2 km/h (4 Bft) SW45 230 0 min 19,5 klux 133 W/m
15.10.2016 14:50 15,0 C 14,0 C 73 % 1010,7 hPa 0,0 l/m 17,8 km/h (3 Bft) SW45 220 0 min 19,5 klux 133 W/m
15.10.2016 14:55 15,3 C 14,3 C 73 % 1010,7 hPa 0,0 l/m 30,2 km/h (5 Bft) SW22.5 235 0 min 24,0 klux 164 W/m
15.10.2016 14:59 15,4 C 14,4 C 72 % 1010,7 hPa 0,0 l/m 26,7 km/h (4 Bft) W-SW45 245 4 min 45,6 klux 312 W/m
15.10.2016 15:05 15,7 C 15,0 C 70 % 1010,7 hPa 0,0 l/m 29,1 km/h (5 Bft) SW45 230 6 min 56,4 klux 386 W/m
15.10.2016 15:10 15,6 C 14,6 C 68 % 1010,7 hPa 0,0 l/m 26,1 km/h (4 Bft) SW67.5 225 0 min 26,7 klux 183 W/m
15.10.2016 15:15 15,8 C 15,4 C 69 % 1010,7 hPa 0,0 l/m 22,9 km/h (4 Bft) SW45 225 0 min 22,3 klux 153 W/m
15.10.2016 15:19 15,9 C 16,0 C 69 % 1010,7 hPa 0,0 l/m 20,8 km/h (4 Bft) SW45 225 0 min 22,3 klux 153 W/m
15.10.2016 15:24 15,9 C 15,2 C 67 % 1010,7 hPa 0,0 l/m 24,1 km/h (4 Bft) SW45 230 0 min 26,5 klux 181 W/m
15.10.2016 15:30 15,6 C 15,3 C 69 % 1011,7 hPa 0,0 l/m 24,5 km/h (4 Bft) SW45 225 6 min 36,4 klux 249 W/m
15.10.2016 15:35 15,7 C 16,0 C 69 % 1011,7 hPa 0,0 l/m 23,1 km/h (4 Bft) SW45 230 5 min 38,1 klux 261 W/m
15.10.2016 15:40 15,8 C 15,9 C 68 % 1011,7 hPa 0,0 l/m 23,5 km/h (4 Bft) SW45 225 0 min 28,5 klux 195 W/m
15.10.2016 15:44 15,5 C 15,1 C 69 % 1011,7 hPa 0,0 l/m 25,6 km/h (4 Bft) W-SW22.5 240 0 min 28,5 klux 195 W/m
15.10.2016 15:49 15,1 C 15,0 C 68 % 1011,7 hPa 0,0 l/m 24,5 km/h (4 Bft) W-SW22.5 240 0 min 10,7 klux 73 W/m
15.10.2016 15:55 15,2 C 14,9 C 70 % 1011,7 hPa 0,0 l/m 18,5 km/h (3 Bft) SW45 230 0 min 12,2 klux 83 W/m
15.10.2016 16:00 15,2 C 14,9 C 69 % 1011,7 hPa 0,0 l/m 18,3 km/h (3 Bft) SW22.5 220 0 min 13,0 klux 89 W/m
15.10.2016 16:04 15,2 C 14,4 C 69 % 1011,7 hPa 0,0 l/m 21,4 km/h (4 Bft) SW22.5 230 0 min 11,3 klux 77 W/m
15.10.2016 16:09 15,2 C 14,3 C 69 % 1011,7 hPa 0,0 l/m 21,4 km/h (4 Bft) SW22.5 230 0 min 11,3 klux 77 W/m
15.10.2016 16:15 15,5 C 14,3 C 68 % 1011,7 hPa 0,0 l/m 17,3 km/h (3 Bft) SW22.5 220 0 min 18,1 klux 124 W/m
15.10.2016 16:20 15,7 C 14,4 C 66 % 1011,7 hPa 0,0 l/m 20,4 km/h (4 Bft) SW45 230 0 min 15,0 klux 103 W/m
15.10.2016 16:24 15,7 C 14,3 C 66 % 1011,7 hPa 0,0 l/m 19,8 km/h (3 Bft) SW22.5 225 0 min 11,1 klux 76 W/m
15.10.2016 16:29 15,6 C 14,3 C 66 % 1011,7 hPa 0,0 l/m 15,9 km/h (3 Bft) SW22.5 230 0 min 11,1 klux 76 W/m
15.10.2016 16:34 15,6 C 14,1 C 67 % 1011,7 hPa 0,0 l/m 15,9 km/h (3 Bft) SW22.5 230 0 min 12,8 klux 88 W/m
15.10.2016 16:40 15,6 C 14,1 C 66 % 1011,7 hPa 0,0 l/m 15,0 km/h (3 Bft) SW22.5 225 0 min 13,3 klux 91 W/m
15.10.2016 16:45 15,7 C 14,2 C 66 % 1011,7 hPa 0,0 l/m 16,5 km/h (3 Bft) SW22.5 235 0 min 10,1 klux 69 W/m
15.10.2016 16:49 15,7 C 14,1 C 66 % 1011,7 hPa 0,0 l/m 19,6 km/h (3 Bft) SW22.5 235 0 min 7,24 klux 50 W/m
15.10.2016 16:54 15,6 C 14,1 C 66 % 1012,7 hPa 0,0 l/m 17,2 km/h (3 Bft) SW22.5 225 0 min 7,24 klux 50 W/m
15.10.2016 16:59 15,4 C 14,1 C 67 % 1012,7 hPa 0,0 l/m 13,8 km/h (3 Bft) SW22.5 230 0 min 8,95 klux 61 W/m
15.10.2016 17:04 15,3 C 14,0 C 68 % 1012,7 hPa 0,0 l/m 12,0 km/h (2 Bft) SW45 230 0 min 8,22 klux 56 W/m
15.10.2016 17:09 15,3 C 14,0 C 68 % 1012,7 hPa 0,0 l/m 11,3 km/h (2 Bft) SW22.5 235 0 min 7,48 klux 51 W/m
15.10.2016 17:14 15,4 C 14,0 C 67 % 1012,7 hPa 0,0 l/m 8,9 km/h (2 Bft) SW22.5 220 0 min 7,48 klux 51 W/m
15.10.2016 17:20 15,5 C 14,0 C 67 % 1012,7 hPa 0,0 l/m 14,3 km/h (3 Bft) SW22.5 230 0 min 6,88 klux 47 W/m
15.10.2016 17:25 15,4 C 14,1 C 67 % 1012,7 hPa 0,0 l/m 17,8 km/h (3 Bft) SW22.5 220 0 min 6,93 klux 47 W/m
15.10.2016 17:29 15,5 C 14,0 C 67 % 1012,7 hPa 0,0 l/m 15,6 km/h (3 Bft) SW22.5 235 0 min 6,93 klux 47 W/m
15.10.2016 17:34 15,2 C 14,0 C 66 % 1012,7 hPa 0,0 l/m 18,3 km/h (3 Bft) SW22.5 225 0 min 4,49 klux 31 W/m
15.10.2016 17:39 15,0 C 14,0 C 67 % 1012,7 hPa 0,0 l/m 19,0 km/h (3 Bft) SW22.5 225 0 min 4,03 klux 28 W/m
15.10.2016 17:45 14,9 C 14,0 C 68 % 1012,7 hPa 0,0 l/m 16,0 km/h (3 Bft) SW22.5 230 0 min 4,03 klux 28 W/m
15.10.2016 17:50 14,8 C 13,9 C 68 % 1012,7 hPa 0,0 l/m 13,6 km/h (3 Bft) SW22.5 220 0 min 3,72 klux 25 W/m
15.10.2016 17:54 14,8 C 13,9 C 67 % 1012,7 hPa 0,0 l/m 11,0 km/h (2 Bft) SW22.5 230 0 min 3,72 klux 25 W/m
15.10.2016 17:59 14,8 C 13,9 C 68 % 1012,7 hPa 0,0 l/m 16,1 km/h (3 Bft) SW45 225 0 min 3,74 klux 26 W/m
15.10.2016 18:05 14,8 C 13,9 C 68 % 1012,7 hPa 0,0 l/m 16,3 km/h (3 Bft) SW22.5 225 0 min 3,74 klux 26 W/m
15.10.2016 18:09 14,4 C 13,8 C 69 % 1012,7 hPa 0,0 l/m 14,3 km/h (3 Bft) SW22.5 235 0 min 3,00 klux 21 W/m
15.10.2016 18:14 14,3 C 13,7 C 69 % 1012,7 hPa 0,0 l/m 15,1 km/h (3 Bft) W-SW22.5 240 0 min 2,38 klux 16 W/m
15.10.2016 18:19 14,0 C 13,7 C 70 % 1012,7 hPa 0,0 l/m 16,8 km/h (3 Bft) W-SW22.5 240 0 min 1,78 klux 12 W/m
15.10.2016 18:25 13,8 C 13,7 C 69 % 1012,7 hPa 0,0 l/m 13,5 km/h (3 Bft) SW45 230 0 min 1,36 klux 9 W/m
15.10.2016 18:30 13,9 C 13,7 C 69 % 1012,7 hPa 0,0 l/m 14,2 km/h (3 Bft) SW45 220 0 min 885 lux 6 W/m
15.10.2016 18:34 13,8 C 13,6 C 69 % 1012,7 hPa 0,0 l/m 11,5 km/h (2 Bft) SW22.5 225 0 min 885 lux 0 W/m
15.10.2016 18:39 13,6 C 13,6 C 69 % 1013,7 hPa 0,0 l/m 11,8 km/h (2 Bft) SW22.5 225 0 min 496 lux 0 W/m
15.10.2016 18:44 13,6 C 13,5 C 69 % 1013,7 hPa 0,0 l/m 9,8 km/h (2 Bft) SW22.5 225 0 min 314 lux 0 W/m
15.10.2016 18:50 13,4 C 13,5 C 69 % 1013,7 hPa 0,0 l/m 10,1 km/h (2 Bft) SW 215 0 min 314 lux 0 W/m
15.10.2016 18:55 13,2 C 13,5 C 69 % 1013,7 hPa 0,0 l/m 9,6 km/h (2 Bft) SW22.5 215 0 min 314 lux 0 W/m
15.10.2016 18:59 13,1 C 13,4 C 70 % 1013,7 hPa 0,0 l/m 8,7 km/h (2 Bft) SW22.5 215 0 min 64 lux 0 W/m
15.10.2016 19:05 12,9 C 13,4 C 70 % 1013,7 hPa 0,0 l/m 7,2 km/h (2 Bft) SW 220 0 min 27 lux 0 W/m
15.10.2016 19:10 12,8 C 13,4 C 70 % 1013,7 hPa 0,0 l/m 8,7 km/h (2 Bft) S-SW22.5 205 0 min 27 lux 0 W/m
15.10.2016 19:15 12,8 C 13,4 C 71 % 1013,7 hPa 0,0 l/m 11,0 km/h (2 Bft) S-SW22.5 210 0 min 5 lux 0 W/m
15.10.2016 19:19 12,8 C 13,4 C 71 % 1013,7 hPa 0,0 l/m 13,6 km/h (3 Bft) SW22.5 225 0 min 1 lux 0 W/m
15.10.2016 19:24 12,7 C 13,4 C 71 % 1013,7 hPa 0,0 l/m 9,3 km/h (2 Bft) SW22.5 215 0 min 0 lux 0 W/m
15.10.2016 19:30 12,6 C 13,4 C 71 % 1013,8 hPa 0,0 l/m 11,2 km/h (2 Bft) SW22.5 215 0 min 0 lux 0 W/m
15.10.2016 19:35 12,6 C 13,4 C 71 % 1013,8 hPa 0,0 l/m 7,2 km/h (2 Bft) S 190 0 min 0 lux 0 W/m
15.10.2016 19:40 12,6 C 13,3 C 71 % 1013,8 hPa 0,0 l/m 11,5 km/h (2 Bft) SW 215 0 min 0 lux 0 W/m
15.10.2016 19:44 12,3 C 13,3 C 71 % 1013,8 hPa 0,0 l/m 6,7 km/h (2 Bft) SW 215 0 min 0 lux 0 W/m
15.10.2016 19:49 12,1 C 13,2 C 71 % 1013,8 hPa 0,0 l/m 9,9 km/h (2 Bft) SW22.5 215 0 min 0 lux 0 W/m
15.10.2016 19:55 12,0 C 13,2 C 72 % 1013,8 hPa 0,0 l/m 7,6 km/h (2 Bft) S-SW22.5 205 0 min 0 lux 0 W/m
15.10.2016 20:00 12,0 C 13,2 C 72 % 1013,8 hPa 0,0 l/m 7,2 km/h (2 Bft) S 175 0 min 0 lux 0 W/m
15.10.2016 20:04 11,9 C 13,2 C 72 % 1014,8 hPa 0,0 l/m 7,9 km/h (2 Bft) S22.5 170 0 min 0 lux 0 W/m
15.10.2016 20:09 11,8 C 13,2 C 72 % 1014,8 hPa 0,0 l/m 7,9 km/h (2 Bft) S 175 0 min 0 lux 0 W/m
15.10.2016 20:15 11,5 C 13,2 C 73 % 1014,8 hPa 0,0 l/m 7,2 km/h (2 Bft) S-SO22.5 165 0 min 0 lux 0 W/m
15.10.2016 20:20 11,1 C 13,2 C 73 % 1014,8 hPa 0,0 l/m 0,4 km/h (0 Bft) SO 135 0 min 0 lux 0 W/m
15.10.2016 20:24 10,9 C 13,2 C 73 % 1014,8 hPa 0,0 l/m 0,1 km/h (0 Bft) SO 135 0 min 0 lux 0 W/m
15.10.2016 20:29 10,7 C 13,2 C 74 % 1014,8 hPa 0,0 l/m 4,8 km/h (1 Bft) SO 135 0 min 0 lux 0 W/m
15.10.2016 20:34 10,7 C 13,2 C 75 % 1014,8 hPa 0,0 l/m 6,3 km/h (2 Bft) S22.5 170 0 min 0 lux 0 W/m
15.10.2016 20:40 10,8 C 13,2 C 75 % 1014,8 hPa 0,0 l/m 7,9 km/h (2 Bft) S22.5 170 0 min 0 lux 0 W/m
15.10.2016 20:45 10,7 C 13,2 C 76 % 1014,8 hPa 0,0 l/m 7,6 km/h (2 Bft) S-SO22.5 160 0 min 0 lux 0 W/m
15.10.2016 20:49 10,8 C 13,1 C 76 % 1014,8 hPa 0,0 l/m 7,6 km/h (2 Bft) S-SO 160 0 min 0 lux 0 W/m
15.10.2016 20:54 10,7 C 13,2 C 76 % 1014,8 hPa 0,0 l/m 6,8 km/h (2 Bft) S-SO 160 0 min 0 lux 0 W/m
15.10.2016 20:59 10,7 C 13,1 C 76 % 1014,8 hPa 0,0 l/m 6,4 km/h (2 Bft) S-SO 150 0 min 0 lux 0 W/m
15.10.2016 21:04 10,6 C 13,1 C 76 % 1014,8 hPa 0,0 l/m 6,7 km/h (2 Bft) SO 140 0 min 0 lux 0 W/m
15.10.2016 21:09 10,5 C 13,1 C 77 % 1014,8 hPa 0,0 l/m 5,6 km/h (2 Bft) SO 140 0 min 0 lux 0 W/m
15.10.2016 21:14 10,5 C 13,1 C 77 % 1014,8 hPa 0,0 l/m 8,7 km/h (2 Bft) S-SO22.5 150 0 min 0 lux 0 W/m
15.10.2016 21:20 10,5 C 13,1 C 77 % 1014,8 hPa 0,0 l/m 7,4 km/h (2 Bft) SO 140 0 min 0 lux 0 W/m
15.10.2016 21:25 10,4 C 13,1 C 77 % 1014,8 hPa 0,0 l/m 4,6 km/h (1 Bft) SO 135 0 min 0 lux 0 W/m
15.10.2016 21:29 10,4 C 13,1 C 77 % 1015,8 hPa 0,0 l/m 1,0 km/h (0 Bft) SO 130 0 min 0 lux 0 W/m
15.10.2016 21:34 10,2 C 13,1 C 77 % 1015,8 hPa 0,0 l/m 1,0 km/h (0 Bft) SO 130 0 min 0 lux 0 W/m
15.10.2016 21:39 10,1 C 13,1 C 77 % 1015,8 hPa 0,0 l/m 1,3 km/h (1 Bft) SO 130 0 min 0 lux 0 W/m
15.10.2016 21:45 10,1 C 13,1 C 77 % 1015,8 hPa 0,0 l/m 0,7 km/h (0 Bft) SO 135 0 min 0 lux 0 W/m
15.10.2016 21:50 10,0 C 13,0 C 78 % 1015,8 hPa 0,0 l/m 0,4 km/h (0 Bft) SO 135 0 min 0 lux 0 W/m
15.10.2016 21:54 9,8 C 13,0 C 78 % 1015,8 hPa 0,0 l/m 0,3 km/h (0 Bft) O-SO 115 0 min 0 lux 0 W/m
15.10.2016 21:59 9,7 C 13,0 C 79 % 1015,8 hPa 0,0 l/m 0,1 km/h (0 Bft) O-SO 110 0 min 0 lux 0 W/m
15.10.2016 22:05 9,6 C 12,9 C 79 % 1015,8 hPa 0,0 l/m 0,4 km/h (0 Bft) O22.5 100 0 min 0 lux 0 W/m
15.10.2016 22:04 9,6 C 12,9 C 79 % 1015,8 hPa 0,0 l/m 0,4 km/h (0 Bft) O22.5 100 0 min 0 lux 0 W/m
15.10.2016 22:10 9,4 C 12,9 C 79 % 1015,8 hPa 0,0 l/m 0,2 km/h (0 Bft) O-SO22.5 105 0 min 0 lux 0 W/m
15.10.2016 22:15 9,3 C 12,9 C 79 % 1015,8 hPa 0,0 l/m 0,0 km/h (0 Bft) O-SO 115 0 min 0 lux 0 W/m
15.10.2016 22:19 9,2 C 12,9 C 79 % 1015,8 hPa 0,0 l/m 0,1 km/h (0 Bft) O-SO 115 0 min 0 lux 0 W/m
15.10.2016 22:24 9,1 C 12,9 C 80 % 1015,8 hPa 0,0 l/m 0,3 km/h (0 Bft) O-SO 115 0 min 0 lux 0 W/m
15.10.2016 22:30 9,1 C 12,9 C 80 % 1015,8 hPa 0,0 l/m 0,0 km/h (0 Bft) O-SO 110 0 min 0 lux 0 W/m
15.10.2016 22:35 9,0 C 12,9 C 80 % 1015,8 hPa 0,0 l/m 0,0 km/h (0 Bft) O-SO 110 0 min 0 lux 0 W/m
15.10.2016 22:40 9,0 C 12,9 C 80 % 1015,8 hPa 0,0 l/m 0,5 km/h (0 Bft) O-SO 110 0 min 0 lux 0 W/m
15.10.2016 22:44 8,9 C 12,9 C 80 % 1015,8 hPa 0,0 l/m 0,1 km/h (0 Bft) O-SO 110 0 min 0 lux 0 W/m
15.10.2016 22:49 8,8 C 12,9 C 80 % 1015,8 hPa 0,0 l/m 0,0 km/h (0 Bft) O-SO 110 0 min 0 lux 0 W/m
15.10.2016 22:55 8,8 C 12,9 C 80 % 1015,8 hPa 0,0 l/m 0,0 km/h (0 Bft) O-SO 110 0 min 0 lux 0 W/m
15.10.2016 23:00 8,7 C 12,9 C 81 % 1015,8 hPa 0,0 l/m 0,1 km/h (0 Bft) O-SO 105 0 min 0 lux 0 W/m
15.10.2016 23:04 8,7 C 12,9 C 81 % 1015,8 hPa 0,0 l/m 0,0 km/h (0 Bft) O-SO 105 0 min 0 lux 0 W/m
15.10.2016 23:10 8,7 C 12,9 C 81 % 1015,8 hPa 0,0 l/m 0,0 km/h (0 Bft) O-SO 105 0 min 0 lux 0 W/m
15.10.2016 23:15 8,5 C 12,9 C 81 % 1015,8 hPa 0,0 l/m 0,0 km/h (0 Bft) O-SO 105 0 min 0 lux 0 W/m
15.10.2016 23:20 8,5 C 12,8 C 81 % 1015,8 hPa 0,0 l/m 0,0 km/h (0 Bft) O-SO 105 0 min 0 lux 0 W/m
15.10.2016 23:24 8,5 C 12,8 C 81 % 1015,8 hPa 0,0 l/m 0,0 km/h (0 Bft) O-SO 105 0 min 0 lux 0 W/m
15.10.2016 23:29 8,5 C 12,8 C 82 % 1015,8 hPa 0,0 l/m 0,0 km/h (0 Bft) O-SO 105 0 min 0 lux 0 W/m
15.10.2016 23:35 8,5 C 12,8 C 82 % 1015,8 hPa 0,0 l/m 0,1 km/h (0 Bft) O-SO 105 0 min 0 lux 0 W/m
15.10.2016 23:40 8,5 C 12,8 C 82 % 1015,8 hPa 0,0 l/m 0,9 km/h (0 Bft) O-SO22.5 115 0 min 0 lux 0 W/m
15.10.2016 23:44 8,4 C 12,8 C 82 % 1015,8 hPa 0,0 l/m 0,0 km/h (0 Bft) O-SO 120 0 min 0 lux 0 W/m
15.10.2016 23:49 8,5 C 12,8 C 82 % 1015,8 hPa 0,0 l/m 0,3 km/h (0 Bft) O-SO 120 0 min 0 lux 0 W/m
15.10.2016 23:54 8,4 C 12,8 C 82 % 1016,8 hPa 0,0 l/m 0,4 km/h (0 Bft) O-SO 115 0 min 0 lux 0 W/m
_ Min-Zeit 23:44 08:04 16:20 06:09 - 01:29 - - - - -
Minimum _ 8,4 C 11,6 C 66 % 1002,7 hPa - 0,0 km/h (0 Bft) - - - - -
_ Max-Zeit 15:19 15:19 08:55 23:54 00:49 12:49 - - 15:05 15:05 15:05
Maximum _ 15,9 C 16,0 C 88 % 1016,8 hPa 0,1 l/m 34,5 km/h
SW (5 Bft)
- - 6 min 56,4 klux 386 W/m
Durchschnitt _ 11,7 C 12,8 C 80 % 1008,6 hPa #0,8 l/m 12,3 km/h (2 Bft) SW - #21 min. 4,81 klux 77 W/m